This is the latest recevied weather packets stored in our database for station/object HB9GPU-10. If no packets are shown the sender has not sent any weather packets the latest 10 day(s).
| Time | Temp. | Humidity | Pressure | Rain* | Wind** | Luminosity | Snow |
|---|---|---|---|---|---|---|---|
| 1778117146 | 25° C | 24% | 1016.4 hPa | - | - | - | - |
| 1778116250 | 25° C | 23% | 1016.3 hPa | - | - | - | - |
| 1778116246 | 25° C | 23% | 1016.3 hPa | - | - | - | - |
| 1778115350 | 26.11° C | 22% | 1016.3 hPa | - | - | - | - |
| 1778115346 | 26.11° C | 22% | 1016.3 hPa | - | - | - | - |
| 1778114450 | 24.44° C | 23% | 1016.4 hPa | - | - | - | - |
| 1778114446 | 24.44° C | 23% | 1016.4 hPa | - | - | - | - |
| 1778113550 | 25° C | 24% | 1016.3 hPa | - | - | - | - |
| 1778113546 | 25° C | 24% | 1016.3 hPa | - | - | - | - |
| 1778112650 | 25° C | 24% | 1016.2 hPa | - | - | - | - |
| 1778112646 | 25° C | 24% | 1016.2 hPa | - | - | - | - |
| 1778111750 | 24.44° C | 24% | 1016.1 hPa | - | - | - | - |
| 1778111745 | 24.44° C | 24% | 1016.1 hPa | - | - | - | - |
| 1778110849 | 24.44° C | 24% | 1016.2 hPa | - | - | - | - |
| 1778110845 | 24.44° C | 24% | 1016.2 hPa | - | - | - | - |
| 1778109949 | 25.56° C | 23% | 1016.3 hPa | - | - | - | - |
| 1778109945 | 25.56° C | 23% | 1016.3 hPa | - | - | - | - |
| 1778109049 | 24.44° C | 24% | 1016.4 hPa | - | - | - | - |
| 1778109045 | 24.44° C | 24% | 1016.4 hPa | - | - | - | - |
| 1778108149 | 24.44° C | 24% | 1016.2 hPa | - | - | - | - |
| 1778108145 | 24.44° C | 24% | 1016.2 hPa | - | - | - | - |
| 1778107249 | 24.44° C | 24% | 1016.2 hPa | - | - | - | - |
| 1778107245 | 24.44° C | 24% | 1016.2 hPa | - | - | - | - |
| 1778106349 | 25° C | 23% | 1016 hPa | - | - | - | - |
| 1778106344 | 25° C | 23% | 1016 hPa | - | - | - | - |
* Rain since midnight (hover to see other rain measurements)
** Current wind speed in m/s (hover to see current wind gust speed)